Flag for France Weather past 2 weeks in Douai, France

Now
79 °F

Passing clouds.


Feels Like: 80 °F
Forecast: 59 / 79 °F
Wind: 9 mph from West

Location: Lille Airport

Current Time: Jul 4, 2015 at 5:46:31 PM

Latest Report: Jul 4, 2015 at 5:00 PM


Visibility: N/A

Pressure: 30.12 "Hg

Humidity: 54%

Dew point: 61 °F

Location of DouaiLocation

Historic Weather in Douai — Graph

°F

Douai temperature yesterday

Maximum temperature yesterday: 88 °F (at 7:00 PM)
Minimum temperature yesterday: 63 °F (at 3:00 AM)
Average temperature yesterday: 75 °F

Past Weeks' High & Low Weather Summary

 TemperatureHumidityPressure
High95 °F (Jul 1, 3:30 PM)100% (Jun 21, 3:30 AM)30.27 "Hg (Jun 21, 3:30 AM)
Low46 °F (Jun 24, 5:30 AM)25% (Jul 1, 6:00 PM)29.74 "Hg (Jun 22, 5:30 PM)
Average67 °F65%30.08 "Hg
* Reported Jun 19 4:00 PM — Jul 4 4:30 PM, Douai, Weather by CustomWeather, © 2015

Note: Actual official high and low records may vary slightly from our data, if they occured in-between our weather recording intervals... More about our weather records

Advertising

Douai weather history for previous 24 hours

 ConditionsComfort  
Time TempWeatherWind HumidityBarometerVisibility
4:30 PM
Sat, Jul 4
79 °FPassing clouds.10 mph48%30.12 "HgN/A
4:00 PM81 °FSunny.12 mph45%30.12 "Hg10 mi
3:30 PM81 °FPassing clouds.12 mph48%30.12 "HgN/A
3:00 PM81 °FSunny.13 mph51%30.12 "Hg10 mi
2:30 PM82 °FSunny.10 mph48%30.12 "Hg10 mi
2:00 PM82 °FSunny.10 mph48%30.12 "Hg10 mi
1:30 PM82 °FPassing clouds.10 mph51%30.12 "HgN/A
1:00 PM84 °FPassing clouds.9 mph43%30.12 "HgN/A
12:30 PM82 °FPassing clouds.6 mph45%30.09 "HgN/A
12:00 PM81 °FThunderstorms. Partly sunny.5 mph54%30.09 "HgN/A
11:30 AM82 °FWarm.12 mph51%30.09 "HgN/A
11:00 AM81 °FSunny.13 mph54%30.09 "Hg10 mi
10:30 AM84 °FPassing clouds.12 mph51%30.07 "HgN/A
10:00 AM82 °FSunny.10 mph58%30.07 "Hg10 mi
9:30 AM81 °FPassing clouds.8 mph62%30.07 "HgN/A
9:00 AM81 °FPassing clouds.8 mph62%30.04 "HgN/A
8:30 AM79 °FPassing clouds.8 mph65%30.04 "HgN/A
8:00 AM77 °FPassing clouds.5 mph65%30.04 "HgN/A
7:30 AM75 °FSunny.2 mph69%30.04 "Hg10 mi
7:00 AM73 °FSunny.No wind74%30.01 "Hg10 mi
6:30 AM73 °FClear.2 mph74%30.01 "Hg10 mi
6:00 AM73 °FClear.5 mph74%30.01 "Hg10 mi
5:30 AM73 °FClear.5 mph74%29.98 "Hg10 mi
5:00 AM75 °FClear.5 mph69%29.98 "Hg10 mi
4:30 AM75 °FClear.6 mph74%29.98 "Hg10 mi
4:00 AM77 °FClear.6 mph69%29.98 "Hg10 mi
3:30 AM77 °FPassing clouds.8 mph69%29.98 "HgN/A
3:00 AM77 °FPassing clouds.8 mph69%29.98 "HgN/A
2:30 AM79 °FPassing clouds.12 mph65%29.98 "HgN/A
2:00 AM79 °FPassing clouds.13 mph65%30.01 "HgN/A
1:30 AM79 °FClear.12 mph65%30.01 "Hg10 mi
1:00 AM79 °FClear.10 mph65%30.04 "Hg10 mi
12:30 AM79 °FClear.9 mph65%30.04 "Hg10 mi
12:00 AM79 °FClear.9 mph65%30.07 "Hg10 mi
11:30 PM
Fri, Jul 3
79 °FClear.10 mph65%30.07 "Hg10 mi
11:00 PM79 °FSunny.9 mph65%30.07 "Hg10 mi
10:30 PM79 °FSunny.10 mph65%30.07 "Hg10 mi
10:00 PM81 °FSunny.10 mph62%30.07 "Hg10 mi
9:30 PM82 °FSunny.12 mph58%30.09 "Hg10 mi
9:00 PM82 °FSunny.10 mph58%30.09 "Hg10 mi
8:30 PM86 °FSunny.9 mph49%30.09 "Hg10 mi
8:00 PM86 °FSunny.12 mph49%30.09 "Hg10 mi
7:30 PM86 °FSunny.12 mph46%30.09 "Hg10 mi
7:00 PM88 °FSunny.12 mph43%30.12 "Hg10 mi
6:30 PM86 °FSunny.13 mph49%30.12 "Hg10 mi
6:00 PM86 °FSunny.12 mph49%30.12 "Hg10 mi
5:30 PM86 °FSunny.10 mph49%30.15 "Hg10 mi
5:00 PM86 °FPassing clouds.8 mph46%30.15 "HgN/A
Weather by CustomWeather, © 2015

See weather overviewHow to use our weather pages